Regional Weather Roundup
Issued by NWS

Home | Current Version | Previous Version | Text Only | Print | Product List | Glossary On
Versions: 1 2 3 4 5 6 7 8 9 10 11 12 13 14 15 16 17 18 19 20 21 22 23 24 25 26 27 28 29 30 31 32 33 34 35 36 37 38 39 40 41 42 43 44 45 46 47 48 49 50
000
ASUS46 KSTO 010804
RWRCA

NORTHERN AND CENTRAL CA REGIONAL WEATHER ROUNDUP
NATIONAL WEATHER SERVICE SACRAMENTO CA
1200 AM PST SUN MAR 01 2015

NOTE: FAIR INDICATES FEW OR NO CLOUDS BELOW 12,000 FEET WITH NO
SIGNIFICANT WEATHER AND/OR OBSTRUCTIONS TO VISIBILITY.

CAZ001-003-010900-
NORTHWEST AREA

CITY           SKY/WX    TMP DP  RH WIND       PRES   REMARKS
CRESCENT CITY  CLEAR     51  31  46 N12       30.06R
UKIAH          CLEAR     41  38  89 CALM      29.96R
$$

CAZ006-505>513-010900-
BAY AREA

CITY           SKY/WX    TMP DP  RH WIND       PRES   REMARKS
SANTA ROSA     CLEAR     41  39  93 N3        29.93R
SAN RAFAEL     N/A       52  MM  MM MISG
NAPA           CLEAR     42  39  89 NW6       29.93R
CONCORD        CLEAR     48  41  76 S3        29.93R
OAKLAND CITY   N/A       51  MM  MM MISG
OAKLAND        PTCLDY    44  42  93 CALM      29.92S
SAN FRAN CITY  N/A       52  MM  75 MISG
SAN FRAN ARPT  PTCLDY    52  50  93 CALM      29.92R
LIVERMORE      CLEAR     45  41  86 CALM      29.92R
HAYWARD        CLEAR     48  45  89 E5        29.92S
REDWOOD CITY   N/A       MM  MM  MM MISG
MOFFETT ARPT   CLEAR     47  43  86 CALM      29.93R
SAN JOSE ARPT  PTCLDY    46  43  89 CALM      29.93R
$$
CAZ034-037-514>518-010900-
CENTRAL COAST

CITY           SKY/WX    TMP DP  RH WIND       PRES   REMARKS
WATSONVILLE    CLEAR     44  44 100 NW5       29.93R
SALINAS        MOCLDY    46  41  82 S3        29.92R
MONTEREY       PTCLDY    46  41  82 E8        29.92R
SAN LUIS OBISP CLOUDY    47  46  97 SE3       29.91R
SANTA MARIA    PTCLDY    47  43  86 NE3       29.91R
$$
CAZ015-016-010900-
NORTHERN SACRAMENTO VALLEY

CITY           SKY/WX    TMP DP  RH WIND       PRES   REMARKS
REDDING        CLEAR     53  26  35 N15G32    29.99R
RED BLUFF      CLEAR     53  26  35 N18       29.97R
OROVILLE         N/A    N/A N/A N/A MISG      29.95R
$$
CAZ016>018-010900-
SOUTHERN SACRAMENTO VALLEY

CITY           SKY/WX    TMP DP  RH WIND       PRES   REMARKS
AUBURN         PTCLDY    41  39  93 CALM      29.91R
BEALE AFB      PTCLDY    43  43  99 CALM      29.91S
LINCOLN        FAIR      36  36 100 NE3       29.91S
MARYSVILLE     PTCLDY    42  39  89 CALM      29.93S
SAC INTL ARPT  CLEAR     41  40  96 N3        29.93R
MATHER AIRPORT NOT AVBL
DOWNTOWN SAC   N/A       47  MM  MM MISG
SAC EXEC ARPT  CLEAR     45  42  89 CALM      29.93R
VACAVILLE      CLEAR     43  37  79 CALM      29.93R
TRAVIS AFB     PTCLDY    44  39  84 CALM      29.91R
$$
CAZ019>021-010900-
SAN JOAQUIN VALLEY

CITY           SKY/WX    TMP DP  RH WIND       PRES   REMARKS
STOCKTON       CLEAR     43  40  89 CALM      29.91R
MODESTO        CLEAR     48  41  76 CALM      29.91R
MERCED         PTCLDY   N/A N/A N/A CALM      29.90S
LEMOORE        PTCLDY    43  40  89 N3        29.93R
FRESNO         MOCLDY    50  44  80 S3        29.92R
HANFORD        PTCLDY    46  42  86 CALM      29.92R
PORTERVILLE    PTCLDY    46  43  87 CALM      29.92S
BAKERSFIELD    CLOUDY    52  47  83 E6        29.90S
$$
CAZ011-012-071-010900-
NORTHERN MOUNTAINS

CITY           SKY/WX    TMP DP  RH WIND       PRES   REMARKS
YREKA          CLEAR     33  22  63 N13       30.10R WCI  24
MOUNT SHASTA   CLEAR     33  19  56 VRB6      30.05R WCI  28
ALTURAS        CLOUDY    30  19  63 N13       30.04R WCI  20
$$
CAZ011-012-071-010900-
SIERRA NEVADA MTNS

CITY           SKY/WX    TMP DP  RH WIND       PRES   REMARKS
BLUE CANYON    PTCLDY    33  26  75 E8        29.88S WCI  26
TRUCKEE        CLOUDY    30  28  93 N7        29.91R WCI  23
TAHOE VLY ARPT LGT SNOW  32  25  75 N3        29.88R
MAMMOTH LAKES  MOCLDY    21  16  79 CALM      29.87S
$$



USA.gov is the U.S. government's official web portal to all federal, state and local government web resources and services.